South Bend, IN

5:01 AM EST on January 24, 2018 (GMT -0500)
South Bend Regional

Weather History for KSBN - August, 2014

Change the Weather History Date:

Monday, August 4, 2014

  Actual Average Record
Temperature  
Mean Temperature 75 °F 72 °F  
Max Temperature 86 °F 82 °F 98 °F (1956)
Min Temperature 64 °F 63 °F 47 °F (1912)
Degree Days  
Heating Degree Days 0 0  
Month to date heating degree days 0 0  
Since 1 June heating degree days 35 49  
Since 1 July heating degree days 18 5  
Cooling Degree Days 10 7  
Month to date cooling degree days 27 30  
Year to date cooling degree days 468 504  
Since 1 June cooling degree days 383 448  
Growing Degree Days 25 (Base 50)    
Moisture  
Dew Point 62 °F    
Average Humidity 66    
Maximum Humidity 87    
Minimum Humidity 44    
Precipitation  
Precipitation T in 0.13 in 1.54 in (1903)
Month to date precipitation T 0.50  
Year to date precipitation 26.01 22.01  
Sea Level Pressure  
Sea Level Pressure 30.09 in    
Wind  
Wind Speed 4 mph (West)    
Max Wind Speed 13 mph    
Max Gust Speed 16 mph    
Visibility 9 miles    
Events Rain , Thunderstorm    
T = Trace of Precipitation, MM = Missing Value Source: NWS Daily Summary

Daily Weather History Graph

Daily Weather History Graph

Search for Another Location

Airport or City:

Trip Planner

Search our weather history database for the weather conditions in past years. The results will help you decide how hot, cold, wet, or windy it might be!

Date:

Astronomy

Aug. 04, 2014 Rise Set
Actual Time 6:42 AM EDT 8:59 PM EDT
Civil Twilight 6:11 AM EDT 9:30 PM EDT
Nautical Twilight 5:33 AM EDT 10:08 PM EDT
Astronomical Twilight 4:50 AM EDT 10:50 PM EDT
Moon 3:10 PM EDT (8/4) 12:49 AM EDT (8/4)
Length of Visible Light 15h 19m
Length of Day
14h 17m
First Quarter, 57% of the Moon is Illuminated
Aug 4
First Quarter
Aug 10
Full
Aug 17
Last Quarter
Aug 25
New
Sep 2
First Quarter

Hourly Weather History & Observations

Time (EDT) Temp. Heat Index Dew Point Humidity Pressure Visibility Wind Dir Wind Speed Gust Speed Precip Events Conditions
12:54 AM 69.8 °F - 62.6 °F 78% 30.11 in 10.0 mi Calm Calm - N/A   Mostly Cloudy
1:54 AM 69.1 °F - 62.1 °F 78% 30.09 in 10.0 mi SSW 3.5 mph - N/A   Clear
2:54 AM 66.9 °F - 61.0 °F 81% 30.09 in 10.0 mi Calm Calm - N/A   Partly Cloudy
3:54 AM 66.0 °F - 61.0 °F 84% 30.09 in 9.0 mi Calm Calm - N/A   Clear
4:54 AM 64.9 °F - 61.0 °F 87% 30.09 in 7.0 mi Calm Calm - N/A   Clear
5:54 AM 64.9 °F - 61.0 °F 87% 30.09 in 6.0 mi Calm Calm - N/A   Clear
6:54 AM 64.9 °F - 61.0 °F 87% 30.11 in 5.0 mi WSW 4.6 mph - N/A   Clear
7:54 AM 66.0 °F - 62.1 °F 87% 30.12 in 4.0 mi North - - N/A   Clear
8:54 AM 70.0 °F - 63.0 °F 78% 30.12 in 6.0 mi Calm Calm - N/A   Haze
9:54 AM 75.0 °F - 64.0 °F 69% 30.12 in 10.0 mi Calm Calm - N/A   Clear
10:54 AM 79.0 °F - 63.0 °F 58% 30.13 in 10.0 mi WNW 5.8 mph - N/A   Clear
11:54 AM 80.1 °F 81.7 °F 64.0 °F 58% 30.13 in 10.0 mi West 10.4 mph - N/A   Clear
12:54 PM 80.1 °F 81.5 °F 63.0 °F 56% 30.12 in 10.0 mi WNW 6.9 mph - N/A   Clear
1:54 PM 82.9 °F 83.7 °F 62.1 °F 49% 30.10 in 10.0 mi WNW 9.2 mph - N/A   Partly Cloudy
2:54 PM 86.0 °F 86.3 °F 62.1 °F 44% 30.08 in 10.0 mi NNW 8.1 mph - N/A   Mostly Cloudy
3:54 PM 84.9 °F 84.8 °F 60.1 °F 43% 30.06 in 10.0 mi Variable 4.6 mph - N/A   Scattered Clouds
4:54 PM 84.0 °F 84.4 °F 61.0 °F 46% 30.05 in 10.0 mi WNW 3.5 mph - N/A   Partly Cloudy
5:54 PM 84.0 °F 84.4 °F 61.0 °F 46% 30.05 in 10.0 mi WNW 5.8 mph - N/A   Scattered Clouds
6:54 PM 82.9 °F 82.8 °F 59.0 °F 44% 30.05 in 10.0 mi Variable 5.8 mph - N/A   Clear
7:54 PM 81.0 °F 81.7 °F 61.0 °F 50% 30.05 in 10.0 mi SSW 5.8 mph - N/A   Partly Cloudy
8:10 PM 80.1 °F 81.2 °F 62.1 °F 54% 30.06 in 10.0 mi SSW 4.6 mph - N/A Thunderstorm Clear
8:54 PM 77.0 °F - 62.1 °F 60% 30.04 in 10.0 mi East 9.2 mph - N/A   Partly Cloudy
9:54 PM 75.9 °F - 61.0 °F 60% 30.05 in 10.0 mi Calm Calm - N/A   Clear
10:54 PM 73.9 °F - 61.0 °F 64% 30.06 in 10.0 mi Calm Calm - N/A   Clear
11:54 PM 71.1 °F - 64.0 °F 78% 30.06 in 10.0 mi NNW 5.8 mph - 0.00 in Rain Light Rain